�������C�����ː����j�^�v���󋵏��
Date,Time,Cs137(Bq/L),Cs134(Bq/L),�S��(Bq/L)
2016/11/26,00:00,0.59,0.082,ND
2016/11/26,00:10,0.58,0.084,ND
2016/11/26,00:20,0.59,0.073,ND
2016/11/26,00:30,0.60,0.071,ND
2016/11/26,00:40,0.59,0.088,ND
2016/11/26,00:50,0.57,0.095,ND
2016/11/26,01:00,0.57,0.11,ND
2016/11/26,01:10,0.57,0.11,ND
2016/11/26,01:20,0.58,0.10,ND
2016/11/26,01:30,0.59,0.097,ND
2016/11/26,01:40,0.61,0.088,ND
2016/11/26,01:50,0.62,0.084,ND
2016/11/26,02:00,0.62,0.085,ND
2016/11/26,02:10,0.71,0.054,ND
2016/11/26,02:20,0.71,0.064,ND
2016/11/26,02:30,0.70,0.070,ND
2016/11/26,02:40,0.60,0.12,ND
2016/11/26,02:50,0.62,0.11,ND
2016/11/26,03:00,0.65,0.10,ND
2016/11/26,03:10,0.67,0.10,ND
2016/11/26,03:20,0.68,0.095,ND
2016/11/26,03:30,0.80,0.047,ND
2016/11/26,03:40,0.83,0.048,ND
2016/11/26,03:50,0.82,0.050,ND
2016/11/26,04:00,0.81,0.059,ND
2016/11/26,04:10,0.83,0.063,ND
2016/11/26,04:20,0.73,0.11,ND
2016/11/26,04:30,0.73,0.13,ND
2016/11/26,04:40,0.75,0.13,ND
2016/11/26,04:50,0.81,0.12,ND
2016/11/26,05:00,0.80,0.13,ND
2016/11/26,05:10,0.82,0.13,ND
2016/11/26,05:20,0.94,0.095,ND
2016/11/26,05:30,0.96,0.090,9.2
2016/11/26,05:40,0.84,0.13,ND
2016/11/26,05:50,0.82,0.13,ND
2016/11/26,06:00,0.84,0.12,ND
2016/11/26,06:10,0.85,0.12,ND
2016/11/26,06:20,0.84,0.12,ND
2016/11/26,06:30,0.86,0.11,ND
2016/11/26,06:40,0.90,0.10,ND
2016/11/26,06:50,1.0,0.070,ND
2016/11/26,07:00,1.0,0.073,ND
2016/11/26,07:10,1.0,0.10,ND
2016/11/26,07:20,1.0,0.10,ND
2016/11/26,07:30,1.0,0.11,ND
2016/11/26,07:40,0.99,0.11,ND
2016/11/26,07:50,0.97,0.11,ND
2016/11/26,08:00,0.95,0.11,ND
2016/11/26,08:10,0.92,0.11,ND
2016/11/26,08:20,0.92,0.10,ND
2016/11/26,08:30,0.90,0.092,ND
2016/11/26,08:40,0.90,0.098,ND
2016/11/26,08:50,0.91,0.089,ND
2016/11/26,09:00,0.88,0.091,ND
2016/11/26,09:10,0.87,0.086,ND
2016/11/26,09:20,0.83,0.087,ND
2016/11/26,09:30,0.76,0.10,ND
2016/11/26,09:40,0.81,0.089,ND
2016/11/26,09:50,0.77,0.094,ND
2016/11/26,10:00,0.78,0.093,ND
2016/11/26,10:10,0.78,0.10,ND
2016/11/26,10:20,0.78,0.11,ND
2016/11/26,10:30,0.79,0.11,ND
2016/11/26,10:40,0.80,0.10,ND
2016/11/26,10:50,0.80,0.096,ND
2016/11/26,11:00,0.83,0.072,ND
2016/11/26,11:10,0.72,0.093,ND
2016/11/26,11:20,0.81,0.052,ND
2016/11/26,11:30,0.81,0.037,ND
2016/11/26,11:40,0.68,0.065,ND
2016/11/26,11:50,0.77,0.035,ND
2016/11/26,12:00,0.68,0.059,ND
2016/11/26,12:10,0.65,0.061,ND
2016/11/26,12:20,0.66,0.046,ND
2016/11/26,12:30,0.65,0.054,ND
2016/11/26,12:40,0.64,0.066,ND
2016/11/26,12:50,0.63,0.059,ND
2016/11/26,13:00,0.72,0.027,ND
2016/11/26,13:10,0.74,ND,ND
2016/11/26,13:20,0.68,0.030,ND
2016/11/26,13:30,0.67,0.027,ND
2016/11/26,13:40,0.55,0.065,ND
2016/11/26,13:50,0.54,0.072,ND
2016/11/26,14:00,0.55,0.068,ND
2016/11/26,14:10,0.54,0.073,ND
2016/11/26,14:20,0.53,0.072,ND
2016/11/26,14:30,0.50,0.077,ND
2016/11/26,14:40,0.50,0.071,ND
2016/11/26,14:50,0.50,0.066,ND
2016/11/26,15:00,0.49,0.060,ND
2016/11/26,15:10,0.48,0.057,ND
2016/11/26,15:20,0.48,0.067,ND
2016/11/26,15:30,0.51,0.067,ND
2016/11/26,15:40,0.52,0.072,ND
2016/11/26,15:50,0.54,0.070,ND
2016/11/26,16:00,0.56,0.069,ND
2016/11/26,16:10,0.60,0.067,ND
2016/11/26,16:20,0.62,0.062,ND
2016/11/26,16:30,0.61,0.065,ND
2016/11/26,16:40,0.74,0.029,9.0
2016/11/26,16:50,0.76,0.033,10
2016/11/26,17:00,0.75,0.046,9.5
2016/11/26,17:10,0.77,0.050,ND
2016/11/26,17:20,0.70,0.086,ND
2016/11/26,17:30,0.72,0.094,ND
2016/11/26,17:40,0.76,0.10,ND
2016/11/26,17:50,0.77,0.11,ND
2016/11/26,18:00,0.79,0.11,ND
2016/11/26,18:10,0.78,0.11,ND
2016/11/26,18:20,0.78,0.12,ND
2016/11/26,18:30,0.79,0.12,ND
2016/11/26,18:40,0.80,0.11,ND
2016/11/26,18:50,0.78,0.11,ND
2016/11/26,19:00,0.76,0.11,8.8
2016/11/26,19:10,0.77,0.10,8.9
2016/11/26,19:20,0.79,0.093,9.0
2016/11/26,19:30,0.79,0.094,11
2016/11/26,19:40,0.78,0.089,9.3
2016/11/26,19:50,0.78,0.092,ND
2016/11/26,20:00,0.80,0.10,ND
2016/11/26,20:10,0.76,0.11,ND
2016/11/26,20:20,0.77,0.10,ND
2016/11/26,20:30,0.76,0.093,ND
2016/11/26,20:40,0.74,0.10,ND
2016/11/26,20:50,0.75,0.096,ND
2016/11/26,21:00,0.74,0.10,ND
2016/11/26,21:10,0.77,0.095,ND
2016/11/26,21:20,0.77,0.11,ND
2016/11/26,21:30,0.76,0.11,ND
2016/11/26,21:40,0.75,0.11,ND
2016/11/26,21:50,0.74,0.11,ND
2016/11/26,22:00,0.74,0.11,ND
2016/11/26,22:10,0.72,0.10,ND
2016/11/26,22:20,0.69,0.10,ND
2016/11/26,22:30,0.69,0.10,ND
2016/11/26,22:40,0.69,0.099,ND
2016/11/26,22:50,0.68,0.084,ND
2016/11/26,23:00,0.66,0.079,ND
2016/11/26,23:10,0.67,0.075,ND
2016/11/26,23:20,0.68,0.072,ND
2016/11/26,23:30,0.66,0.075,ND
2016/11/26,23:40,0.65,0.075,ND
2016/11/26,23:50,0.63,0.086,ND
